OBJECT M (47320 NORAD) Tracking and Keplerian Element Data
This shows tracking and keplerian element data for the satellite.
Feedback or suggestion? Click here.
Element | Value |
Catalog | 47320 |
Name | OBJECT M |
Epoch Orbit | 593 |
Epoch Day | 56.83840714 |
Epoch Year | 2021 |
RAAN | 348.911 |
Inclination | 60.6864 |
Eccentricity | 0.0018626 |
Argument of Perigee | 327.7724 |
Mean Anonmoly | 32.2223 |
Mean Motion | 15.21236779 |
Decay Rate | 2.344E-05 |
L1 | 1 47320U 21002M 21056.83840714 .00002344 00000-0 11574-3 0 9994 |
L2 | 2 47320 60.6864 348.9110 0018626 327.7724 32.2223 15.21236779 5933 |
Live tracking and technical data element details for OBJECT M (NORAD 47320). OBJECT M can be tracked NOW for your location showing map with azimuth and elevation plus other details from your city location.
Track the satellite on the map from your city or location and see movement details for azimuth, elevation, latitude, longitude, range, height, and movement on the map or in text.
IsCatalogInMostPopularTable: catalog: 47320, numindb: 9
Update: records affected: 1
GetName: 47320 OBJECT M
Hit Count: updated at: Tue, 02 Mar 2021 13:11:56 GMT